Location: ????????
(55.0097°N, 38.5678°E)
Time: 01:06:34
(UTC+00:00)

NOSS 3-1 (C) - Pass Details

Date: 19 December 2025
Orbit: 618 x 1583 km, 63.4° (Epoch: 10 January)

Event Time Altitude Azimuth Distance (km) Brightness Sun altitude
Rises 14:34:19 0° 158° (SSE) 2,965 6.1 -12.4°
Reaches altitude 10° 14:38:07 10° 124° (SE) 2,180 5.0 -12.9°
Enters shadow 14:39:39 12° 106° (ESE) 2,140 4.9 -13.1°
